RH
18 17 16 15 14 14 15 15 15 15 14 14 13 13 12 12 12 12 12 12 12 11 11 11 12 13 14 14 14 14 14 14 13 14 14 14 13 12 11 10 11 13 14 13 13 13 14 16 19 22 27 31 35 37 39 39 39 39 40 42 41 40 37 34 33 33 35 37 38 36 34 32 33 35 37 41 40 39 43 46 48 49 49 52 55 54 53 54
15 15 15 15 15 15 15 16 16 16 16 15 14 13 12 12 12 12 12 12 12 12 11 11 11 12 13 13 14 14 13 13 12 13 14 15 16 15 14 13 13 13 14 14 14 13 13 14 15 18 21 25 29 34 38 39 40 39 39 38 36 39 40 38 35 34 36 38 40 40 40 37 36 37 39 43 44 41 39 43 48 49 48 51 55 55 54 54
15 15 15 15 15 15 16 16 17 17 17 16 15 14 13 13 13 13 13 13 14 14 13 13 12 13 13 13 13 13 12 11 11 14 16 16 16 16 16 17 16 15 14 13 14 14 13 13 14 15 17 20 24 30 35 37 38 38 39 36 29 33 39 41 41 38 35 37 39 41 43 43 41 39 38 42 45 42 37 41 47 49 50 52 57 58 55 53
16 16 15 16 16 16 16 16 17 17 17 17 16 15 14 15 15 15 15 15 16 15 16 15 15 15 15 15 14 13 12 9 10 14 16 16 17 17 18 18 18 18 16 14 13 15 14 14 14 15 17 18 20 24 30 33 35 36 35 30 24 28 34 38 42 43 40 39 39 41 44 44 43 42 39 40 44 43 38 37 41 44 50 54 58 60 55 52
17 18 18 18 17 17 17 17 18 18 18 17 16 16 16 17 17 17 17 17 17 17 17 17 16 16 17 18 16 16 13 10 14 17 17 17 16 15 16 17 18 18 17 15 16 16 15 16 16 16 17 19 20 21 23 27 32 34 31 24 23 27 30 32 36 40 42 43 43 43 43 42 43 44 41 41 43 41 38 37 36 39 47 52 57 59 55 52
19 20 20 20 19 19 19 19 19 18 18 17 16 16 18 18 18 18 18 18 18 18 19 18 18 17 18 19 18 17 14 12 18 20 19 19 15 13 15 17 17 17 16 15 16 17 17 17 18 18 19 20 21 20 20 23 27 29 26 23 24 27 29 30 32 34 36 40 42 42 41 41 44 44 40 42 43 39 36 37 36 38 44 47 53 57 53 52
20 20 20 20 20 19 19 19 19 18 18 16 16 18 19 18 19 19 19 19 20 20 19 19 19 18 19 19 18 18 16 15 17 15 14 14 12 12 13 15 16 15 16 15 16 18 18 18 18 19 21 21 21 21 20 21 23 24 24 24 25 27 28 29 30 32 33 34 36 36 37 39 42 41 37 38 41 40 40 40 38 38 43 45 50 55 52 50
20 20 20 19 19 19 19 18 18 18 17 17 18 20 20 20 20 21 20 20 20 20 19 18 18 18 18 18 18 19 18 16 16 15 14 12 12 13 13 13 13 14 14 14 15 17 18 18 19 19 21 21 20 20 20 21 21 22 22 23 25 27 28 28 29 30 31 32 32 32 33 34 37 38 34 33 37 40 43 46 42 39 41 42 45 50 52 51
21 20 20 19 18 18 18 17 18 18 17 19 20 21 20 21 23 23 22 21 21 21 20 19 18 17 18 18 18 19 18 17 17 18 17 15 15 16 15 12 12 13 13 13 13 15 16 17 18 19 20 20 19 19 19 20 21 21 21 22 24 26 27 27 27 28 29 30 32 32 32 31 34 37 33 30 35 37 41 47 47 43 41 39 40 45 50 52
21 20 20 19 18 18 18 18 18 18 18 21 22 22 21 21 24 25 23 22 21 20 19 19 18 18 18 19 19 18 16 17 19 21 20 20 19 17 15 14 13 12 13 13 12 13 14 15 16 17 19 20 20 20 20 21 20 19 20 21 22 22 24 26 27 27 28 30 31 32 33 31 33 36 31 28 33 35 37 43 47 48 44 39 38 40 46 51
21 20 20 19 18 18 18 19 19 18 20 23 23 22 21 23 25 25 23 21 21 20 21 21 21 21 20 20 21 18 15 15 19 21 22 23 23 20 17 16 14 14 14 13 12 13 12 12 13 15 17 19 21 21 20 20 20 19 20 21 21 21 22 24 26 27 28 28 29 31 33 32 33 33 27 26 32 35 35 38 43 47 46 42 40 39 43 48
20 20 19 18 18 18 18 20 19 20 23 25 24 24 24 24 25 24 22 22 23 23 23 24 24 24 23 22 22 20 17 16 16 17 19 20 21 21 20 18 16 16 15 14 14 14 13 12 11 12 15 17 19 21 22 21 19 19 20 21 22 22 22 22 23 25 27 27 27 31 33 34 32 27 24 27 31 35 36 35 39 46 47 47 43 40 42 45
19 19 19 18 18 18 19 20 19 22 25 26 25 25 25 24 23 23 23 24 25 25 26 26 26 27 27 24 21 20 20 20 19 18 18 18 18 20 21 21 20 19 18 17 17 15 14 13 12 12 12 13 16 19 22 22 21 21 21 22 23 23 22 20 21 23 25 25 26 31 33 32 28 22 24 28 29 33 35 33 37 45 51 52 48 44 43 45
19 19 19 18 18 19 20 20 20 23 26 27 27 26 24 22 22 23 25 25 26 26 26 27 27 28 29 24 20 21 20 20 21 21 21 20 19 19 20 22 23 23 21 19 19 17 15 13 13 12 11 11 13 15 19 22 26 26 24 23 23 23 21 19 21 22 23 23 26 32 33 28 23 20 25 28 27 31 33 32 36 44 51 53 51 49 46 46
20 20 19 19 19 19 20 20 21 25 27 28 28 26 23 21 22 24 25 25 26 27 26 27 28 29 30 24 19 21 21 21 22 23 24 23 21 20 19 19 21 23 25 24 22 19 16 14 14 13 12 11 11 13 16 20 27 30 29 28 26 24 20 19 21 22 22 22 26 33 31 25 20 20 25 29 28 30 32 34 38 43 48 51 52 51 50 48
20 20 19 19 19 20 21 21 23 27 29 29 29 26 22 21 22 24 24 25 27 27 26 28 29 30 31 26 20 21 21 22 23 24 27 26 25 24 22 21 21 21 24 26 26 23 19 16 15 14 12 12 13 13 15 17 24 29 29 30 30 27 23 22 22 21 22 23 26 32 29 22 21 21 26 30 29 30 31 33 39 44 46 49 51 51 51 50
20 20 19 19 19 20 21 22 25 29 30 31 29 24 22 22 23 24 24 26 27 26 27 29 30 32 30 24 20 21 21 22 24 26 28 29 30 28 27 25 24 23 23 24 27 26 23 20 18 17 15 15 16 16 17 17 19 22 26 30 33 32 30 28 24 22 24 25 26 29 26 21 21 23 26 29 30 30 31 32 37 43 45 47 49 49 51 51
21 20 20 20 20 21 21 23 27 30 32 32 29 24 22 23 24 26 27 27 27 28 31 30 30 32 27 21 21 22 21 22 25 29 32 32 31 31 30 28 28 28 26 25 25 25 26 25 22 22 20 18 17 17 17 17 18 20 24 29 33 34 34 33 30 24 24 26 26 26 24 21 21 24 26 28 30 31 30 30 33 39 42 45 46 49 51 52
22 21 21 20 20 21 22 25 29 32 33 33 30 24 23 24 25 27 27 27 28 29 32 31 31 32 26 23 24 22 21 23 26 31 36 36 33 32 30 30 30 30 31 30 28 26 26 27 27 26 23 20 19 18 16 17 20 22 22 26 31 32 33 35 33 28 26 26 27 26 23 21 22 24 26 26 29 30 29 30 32 35 39 43 45 46 49 52
23 22 21 20 21 22 24 27 31 34 35 35 30 24 26 30 31 31 29 28 30 31 31 32 33 33 29 27 25 23 22 25 29 33 37 39 38 35 32 32 30 30 34 36 34 30 27 30 30 28 26 24 23 23 21 20 19 19 19 22 26 28 29 31 32 31 30 29 28 26 23 22 22 24 25 25 27 29 29 30 31 33 36 40 42 42 44 48
23 22 21 21 22 23 26 29 32 35 37 37 32 28 32 37 37 38 36 32 30 31 32 31 32 32 31 29 27 26 25 26 29 32 34 36 38 36 34 33 33 34 37 37 38 36 32 31 29 28 30 31 30 28 26 25 23 21 21 21 23 24 24 25 28 29 31 34 31 27 25 24 24 24 25 25 27 28 27 28 30 30 33 36 38 38 39 42
23 21 21 22 23 25 28 31 34 37 39 38 35 34 38 39 38 40 42 40 34 30 32 32 33 33 32 30 28 28 29 28 28 30 32 33 35 36 34 34 35 37 39 39 41 42 39 33 28 31 34 34 34 32 30 30 29 27 26 25 24 21 20 21 24 26 29 36 36 30 27 25 25 26 25 25 26 24 23 25 27 28 31 35 37 36 35 40
24 21 21 23 25 27 30 33 36 38 41 40 37 36 39 38 39 41 44 46 41 32 32 34 34 34 34 31 30 32 32 32 31 30 32 33 34 35 34 34 36 38 38 37 39 41 39 34 32 35 35 33 34 34 36 35 32 32 29 28 26 21 20 20 20 23 27 33 35 32 30 27 26 26 25 24 23 22 21 22 25 27 30 32 34 34 32 39
24 21 21 23 27 30 32 34 37 40 42 42 39 38 39 39 39 42 43 46 46 38 33 34 34 36 36 32 33 35 34 34 34 32 32 33 34 35 35 35 36 38 38 36 35 36 34 32 32 33 34 33 33 33 35 36 36 34 31 29 26 22 22 21 18 19 22 26 31 34 35 30 27 27 26 24 23 22 21 21 24 27 28 29 32 33 31 35
25 22 21 24 30 33 33 35 39 42 43 44 41 38 39 40 39 43 44 44 45 41 35 36 38 38 36 35 36 34 33 35 36 35 33 34 35 37 37 37 37 39 40 38 36 33 30 29 30 30 31 32 33 33 33 35 36 36 32 27 24 23 23 22 20 20 22 23 23 32 39 35 29 28 26 24 24 23 22 22 23 24 25 29 32 33 31 31
25 23 22 26 32 34 34 36 39 43 44 45 43 39 39 40 40 44 45 45 46 43 40 41 42 41 40 39 37 34 35 36 35 38 39 37 38 38 39 39 38 41 43 42 40 36 31 30 30 30 31 32 32 32 31 31 35 36 32 27 25 26 26 24 22 23 26 23 17 27 39 39 36 32 29 27 26 23 23 23 23 22 24 27 31 32 30 31
26 23 23 29 33 33 35 37 39 43 46 47 44 40 39 40 41 43 44 47 49 45 45 48 49 48 48 46 42 39 41 39 37 41 42 42 42 41 43 42 41 43 44 44 44 41 37 34 34 33 32 31 29 27 27 30 34 34 30 29 30 31 30 29 26 25 25 20 17 23 33 38 39 34 29 30 29 24 23 23 22 21 21 23 26 27 27 29
26 23 25 32 35 35 37 38 40 44 47 47 44 40 40 41 41 43 46 47 48 48 52 56 58 58 56 53 50 47 43 41 43 44 42 45 48 46 48 47 45 45 45 46 47 45 42 40 40 38 35 33 29 27 29 31 32 30 28 31 32 33 33 31 30 29 24 22 22 19 25 38 41 35 30 31 30 27 23 22 20 18 18 19 20 22 23 25
26 25 28 33 36 37 38 39 39 43 46 45 44 40 40 42 41 43 48 47 48 54 58 61 66 68 65 57 53 52 47 42 46 48 46 51 55 54 55 53 51 49 47 47 47 46 46 45 44 42 38 35 33 31 31 30 27 25 27 31 30 31 33 32 34 32 27 30 29 18 21 36 40 34 30 32 31 27 23 21 19 17 16 16 17 19 22 25
27 27 30 34 38 39 40 40 39 42 45 44 44 42 41 44 43 48 54 51 51 58 60 63 69 73 73 65 57 56 53 47 45 49 54 58 61 62 60 58 56 54 53 51 50 49 48 48 48 44 40 37 36 36 34 30 26 25 27 29 30 32 33 34 35 32 34 40 32 17 18 31 37 32 28 30 30 26 23 21 19 17 16 16 16 17 20 24
29 30 33 36 39 40 41 41 39 41 44 44 44 43 42 44 48 55 55 49 55 60 61 66 71 74 78 75 69 64 59 54 48 50 57 61 66 67 65 65 63 60 59 56 55 56 54 53 52 47 43 41 40 39 35 32 28 27 28 29 32 35 34 35 35 36 44 45 30 18 18 27 34 31 25 26 26 25 25 23 20 19 17 16 17 17 18 20
30 31 35 37 39 41 42 42 41 41 44 45 44 44 44 46 52 59 54 51 59 63 61 67 72 75 79 80 79 73 63 59 55 53 58 62 68 72 71 72 70 66 64 59 57 60 58 56 54 50 47 44 44 42 38 35 31 29 30 31 35 41 44 47 44 43 47 39 26 20 21 26 29 26 24 23 22 23 25 24 22 20 18 16 16 17 17 18
31 33 37 38 40 42 42 43 43 42 44 45 43 44 48 53 58 60 57 57 61 61 62 69 73 76 81 81 80 77 69 65 61 57 59 63 69 74 75 75 72 70 69 64 59 58 57 53 49 48 46 43 43 43 39 37 34 31 31 32 36 41 52 57 51 46 43 36 28 22 24 28 24 21 22 19 18 20 22 23 22 20 18 16 16 16 17 17
33 36 39 39 40 41 42 44 44 44 44 43 44 46 50 58 62 62 60 60 59 59 63 70 74 76 82 83 80 77 75 73 68 63 62 65 70 76 78 76 75 74 73 71 65 61 61 57 48 46 45 42 40 37 36 38 37 34 31 32 36 38 46 53 51 48 43 36 29 24 31 35 24 19 21 15 14 18 19 21 23 22 19 17 16 16 16 17
35 38 41 41 40 41 42 44 45 44 43 42 46 50 56 64 68 66 65 63 61 61 62 66 72 76 81 83 81 78 78 78 76 72 69 67 69 77 79 76 75 75 76 77 70 62 62 58 48 45 45 45 42 36 35 39 41 37 32 33 37 36 38 43 45 46 44 40 34 28 33 35 23 19 20 16 14 16 19 21 23 24 22 18 17 16 15 16
39 39 42 43 42 42 43 44 45 45 42 43 50 55 61 67 68 68 68 64 63 63 62 63 69 76 81 82 82 81 81 82 81 81 78 69 66 74 79 79 77 74 72 74 72 65 60 53 46 45 46 46 46 42 38 38 40 39 34 32 33 32 36 41 42 41 45 51 46 33 29 26 20 18 17 16 17 16 19 22 22 24 24 21 18 16 15 15
42 42 44 46 44 42 43 45 45 45 43 45 53 58 64 66 65 69 68 63 63 64 66 68 69 73 79 82 81 81 85 88 85 83 83 77 72 72 77 81 78 73 67 66 69 68 63 56 49 46 44 45 47 46 41 37 37 40 37 31 30 35 40 43 45 46 53 63 54 37 30 25 20 22 18 15 17 17 18 21 22 23 23 23 21 17 16 16
43 45 46 47 46 43 44 45 45 45 45 50 57 60 62 64 63 64 62 59 62 64 68 73 72 71 78 84 82 80 87 93 90 86 86 84 80 74 75 80 77 73 69 65 67 70 67 61 57 52 49 50 50 50 49 43 37 37 37 35 40 47 50 48 52 55 60 69 63 45 39 33 24 23 20 16 16 15 15 18 20 21 21 23 22 18 16 15
45 48 48 49 47 44 46 47 45 44 47 54 59 59 60 62 61 60 58 55 59 65 71 75 74 74 77 81 82 81 86 93 92 93 91 86 81 76 76 80 78 76 74 70 69 72 73 72 68 62 59 59 56 53 55 53 43 36 36 42 49 52 54 59 62 60 57 66 69 55 48 46 34 24 19 16 16 14 14 16 18 19 20 21 22 20 18 17
47 51 51 50 48 46 48 48 45 46 51 56 58 57 57 58 57 57 56 54 56 64 73 77 78 78 76 76 80 82 86 91 93 97 97 88 82 80 78 80 82 81 78 76 75 76 81 82 77 68 62 62 61 56 53 52 48 43 38 44 51 48 53 66 69 61 56 65 72 63 57 52 38 26 21 17 16 15 15 17 18 19 21 21 21 20 19 18
48 53 52 50 50 50 48 48 48 49 53 56 57 57 55 53 54 54 53 53 53 59 71 77 78 77 75 75 79 81 84 89 92 97 99 92 86 83 79 80 86 86 81 81 83 82 85 89 82 70 62 61 61 60 56 50 51 52 44 42 47 49 57 74 78 66 56 59 65 63 59 49 32 28 27 22 20 18 17 20 22 23 25 25 25 23 20 19
50 55 53 50 52 52 50 51 52 52 53 53 53 54 51 49 53 53 51 52 52 56 67 76 77 75 75 76 76 77 82 86 89 96 99 93 89 85 79 82 87 85 83 85 85 84 90 95 86 72 63 59 57 57 56 52 52 57 53 46 48 56 64 76 83 74 61 57 56 55 55 41 27 32 35 29 28 25 22 25 28 30 30 29 28 27 23 20
52 56 53 50 52 51 50 53 54 54 54 50 48 50 48 49 52 51 50 51 51 55 65 74 75 73 75 75 73 74 82 85 88 96 98 93 88 81 78 84 88 85 87 90 88 87 93 96 87 72 65 61 57 55 55 55 53 56 59 53 54 63 66 69 76 74 68 61 55 57 58 38 25 34 37 32 32 29 26 29 32 34 33 30 29 29 27 22
52 56 52 48 50 50 50 55 56 56 55 51 50 49 46 47 48 47 49 49 48 52 61 69 71 72 75 77 73 77 86 89 87 91 96 95 88 79 77 83 86 86 88 89 90 91 94 95 88 78 71 67 64 65 68 66 58 57 60 56 58 66 67 68 73 73 71 65 57 62 60 36 23 32 34 31 31 29 29 33 36 37 35 32 31 31 29 25
52 55 51 46 49 52 52 54 54 55 54 53 53 52 47 45 43 42 45 47 46 49 53 60 66 72 78 78 74 79 89 93 89 88 94 95 85 76 76 77 79 84 87 86 89 93 95 97 91 82 77 71 66 69 73 69 60 57 59 58 62 70 72 72 72 70 70 65 58 57 51 33 24 29 35 37 36 33 35 40 45 44 38 34 34 34 32 28
54 57 54 50 50 51 51 50 50 53 55 54 54 53 51 47 41 38 42 46 47 45 47 56 66 74 78 74 70 74 82 88 90 90 95 97 87 76 75 73 72 78 84 86 88 92 97 99 92 82 74 65 58 61 65 66 61 57 57 60 66 72 74 72 68 64 63 62 57 52 47 40 33 33 44 51 44 39 41 46 48 45 38 35 34 34 35 32
56 61 61 56 53 54 52 50 52 54 55 55 54 53 52 48 43 40 41 44 46 45 47 56 66 71 73 70 70 72 75 80 87 90 93 97 91 77 72 69 66 70 79 83 84 89 97 99 96 88 76 64 58 58 60 64 64 60 59 61 66 69 69 66 61 56 56 57 58 55 53 51 42 40 52 56 48 43 45 47 45 39 37 36 33 33 36 34
57 62 64 61 59 60 57 53 54 57 57 57 56 54 51 49 46 43 43 44 45 46 47 52 61 67 69 71 75 75 72 74 79 83 89 95 90 76 71 69 64 66 78 84 83 87 93 94 95 93 83 71 63 59 59 62 63 62 63 63 66 67 64 58 53 51 51 54 56 56 55 52 45 46 53 52 51 50 47 45 43 40 41 39 34 35 38 35
60 63 65 64 64 64 60 56 57 59 60 59 57 53 51 50 49 45 45 47 48 48 45 47 56 64 68 73 78 77 74 75 77 77 83 91 85 75 75 74 68 72 83 88 85 87 92 91 91 95 91 81 70 62 61 63 64 64 64 63 66 65 60 54 50 50 51 51 51 50 50 49 47 51 53 48 50 55 52 48 46 45 48 46 38 37 40 38
65 67 68 70 70 68 64 61 60 61 62 60 57 53 52 52 51 47 47 50 52 51 46 47 55 62 67 74 78 76 72 73 77 77 81 86 82 77 78 75 73 79 86 89 89 89 92 90 87 91 94 90 85 76 67 64 65 65 64 62 62 59 56 53 50 50 51 49 48 47 47 48 49 55 57 51 50 54 53 51 48 46 50 52 44 38 40 39
69 71 70 72 73 71 68 65 63 64 64 62 59 56 54 54 52 49 49 49 51 52 49 48 53 58 66 72 74 73 69 67 72 78 81 83 80 78 77 72 72 78 82 89 93 91 93 93 88 90 92 89 92 93 80 67 63 62 60 59 58 56 54 53 50 50 47 44 45 46 45 50 56 61 63 60 57 56 53 50 49 48 51 52 46 39 38 38
70 71 71 74 74 72 71 70 67 65 63 63 62 58 55 54 51 51 50 47 49 52 51 49 51 55 65 70 66 67 66 63 69 77 80 79 76 75 75 72 71 75 78 86 94 92 93 94 91 92 93 87 90 95 85 72 68 63 58 57 58 56 56 54 51 50 46 43 45 44 46 56 66 69 69 68 66 64 58 53 50 50 51 48 45 43 40 37